When you browse on this site, cookies collect data to enhance your experience and personalize the content and advertising you see.
Visit our Privacy Policy to learn more. By continuing to use the site, you agree to this use of cookies and data.
  • în România
  • Lista ţărilor
  • Pe 7 zile
  • Temperatura apei
  • Hartă satelitară
  • Meteo pe hartă
  • Widget-uri
  • user-avatar
    Intrare

    Meteo pe oră la Bijeljina

    Astăzi, 20 Iunie, Joi

    Timp Temperatura Precipitaţii Vânt Presiune Umiditate
    00:00 +21°C° 0 mm 1 m/s 751 mmHg 84%
    01:00 +21°C° 0 mm 1 m/s 751 mmHg 84%
    02:00 +20°C° 0 mm 1 m/s 751 mmHg 84%
    03:00 +20°C° 0 mm 1 m/s 751 mmHg 85%
    04:00 +20°C° 0 mm 1 m/s 750 mmHg 85%
    05:00 +21°C° 0 mm 1 m/s 751 mmHg 82%
    06:00 +23°C° 0 mm 1 m/s 751 mmHg 78%
    07:00 +24°C° 0 mm 1 m/s 751 mmHg 75%
    08:00 +26°C° 0.1 mm 1 m/s 751 mmHg 71%
    09:00 +27°C° 0.1 mm 1 m/s 751 mmHg 68%
    10:00 +28°C° 0.1 mm 1 m/s 751 mmHg 64%
    11:00 +29°C° 0.2 mm 1 m/s 751 mmHg 61%
    12:00 +30°C° 0.2 mm 2 m/s 751 mmHg 59%
    13:00 +31°C° 0.2 mm 2 m/s 751 mmHg 56%
    14:00 +31°C° 0.1 mm 2 m/s 750 mmHg 56%
    15:00 +31°C° 0.1 mm 2 m/s 750 mmHg 57%
    16:00 +31°C° 0.1 mm 1 m/s 750 mmHg 58%
    17:00 +29°C° 0.2 mm 1 m/s 750 mmHg 64%
    18:00 +28°C° 0.2 mm 1 m/s 750 mmHg 70%
    19:00 +24°C° 0.2 mm 0 m/s 750 mmHg 75%
    20:00 +25°C° 0.1 mm 1 m/s 751 mmHg 77%
    21:00 +24°C° 0.1 mm 1 m/s 751 mmHg 79%
    22:00 +23°C° 0.1 mm 1 m/s 751 mmHg 81%
    23:00 +22°C° 0.1 mm 1 m/s 751 mmHg 82%

    Mâine, 21 Iunie, Vineri

    Timp Temperatura Precipitaţii Vânt Presiune Umiditate
    00:00 +22°C° 0.1 mm 1 m/s 751 mmHg 83%
    01:00 +21°C° 0.1 mm 1 m/s 752 mmHg 84%
    02:00 +21°C° 0.3 mm 1 m/s 752 mmHg 85%
    03:00 +20°C° 0.3 mm 1 m/s 752 mmHg 86%
    04:00 +20°C° 0.3 mm 1 m/s 752 mmHg 88%
    05:00 +21°C° 0.4 mm 1 m/s 752 mmHg 86%
    06:00 +23°C° 0.4 mm 1 m/s 752 mmHg 83%
    07:00 +24°C° 0.4 mm 1 m/s 753 mmHg 81%
    08:00 +25°C° 0 mm 1 m/s 753 mmHg 77%
    09:00 +27°C° 0 mm 2 m/s 753 mmHg 73%
    10:00 +28°C° 0 mm 2 m/s 753 mmHg 69%
    11:00 +29°C° 0 mm 2 m/s 753 mmHg 65%
    12:00 +30°C° 0 mm 2 m/s 753 mmHg 62%
    13:00 +31°C° 0 mm 2 m/s 752 mmHg 59%
    14:00 +31°C° 0 mm 2 m/s 752 mmHg 60%
    15:00 +30°C° 0 mm 2 m/s 752 mmHg 60%
    16:00 +30°C° 0 mm 2 m/s 752 mmHg 61%
    17:00 +29°C° 0.1 mm 1 m/s 752 mmHg 65%
    18:00 +27°C° 0.1 mm 1 m/s 752 mmHg 70%
    19:00 +24°C° 0.1 mm 0 m/s 752 mmHg 75%
    20:00 +23°C° 0.2 mm 0 m/s 752 mmHg 78%
    21:00 +22°C° 0.2 mm 0 m/s 753 mmHg 81%
    22:00 +23°C° 0.2 mm 1 m/s 753 mmHg 83%
    23:00 +23°C° 0.1 mm 1 m/s 753 mmHg 85%

    Poimâine, 22 Iunie, Sâmbătă

    Timp Temperatura Precipitaţii Vânt Presiune Umiditate
    00:00 +22°C° 0.1 mm 1 m/s 753 mmHg 86%
    01:00 +22°C° 0.1 mm 1 m/s 753 mmHg 87%
    02:00 +21°C° 0 mm 1 m/s 753 mmHg 88%
    03:00 +21°C° 0 mm 1 m/s 753 mmHg 88%
    04:00 +20°C° 0 mm 1 m/s 753 mmHg 89%
    05:00 +22°C° 0 mm 1 m/s 753 mmHg 86%
    06:00 +23°C° 0 mm 1 m/s 754 mmHg 83%
    07:00 +25°C° 0 mm 1 m/s 754 mmHg 80%
    08:00 +24°C° 0 mm 0 m/s 754 mmHg 75%
    09:00 +26°C° 0 mm 0 m/s 754 mmHg 70%
    10:00 +27°C° 0 mm 0 m/s 753 mmHg 66%
    11:00 +30°C° 0 mm 1 m/s 753 mmHg 63%
    12:00 +31°C° 0 mm 2 m/s 753 mmHg 61%
    13:00 +31°C° 0 mm 2 m/s 752 mmHg 58%
    14:00 +31°C° 0.1 mm 2 m/s 752 mmHg 60%
    15:00 +31°C° 0.1 mm 2 m/s 751 mmHg 62%
    16:00 +31°C° 0.1 mm 2 m/s 751 mmHg 63%
    17:00 +30°C° 0.2 mm 2 m/s 751 mmHg 67%
    18:00 +28°C° 0.2 mm 2 m/s 751 mmHg 71%
    19:00 +27°C° 0.2 mm 1 m/s 751 mmHg 75%
    20:00 +26°C° 1.2 mm 1 m/s 751 mmHg 79%
    21:00 +24°C° 1.2 mm 1 m/s 751 mmHg 83%
    22:00 +23°C° 1.2 mm 1 m/s 751 mmHg 87%
    23:00 +23°C° 1.3 mm 1 m/s 751 mmHg 89%

    23 Iunie, Duminică

    Timp Temperatura Precipitaţii Vânt Presiune Umiditate
    00:00 +22°C° 1.3 mm 1 m/s 751 mmHg 90%
    01:00 +21°C° 1.3 mm 1 m/s 751 mmHg 92%
    02:00 +21°C° 0.4 mm 1 m/s 751 mmHg 92%
    03:00 +21°C° 0.4 mm 1 m/s 751 mmHg 93%
    04:00 +20°C° 0.4 mm 1 m/s 750 mmHg 94%
    05:00 +21°C° 0.4 mm 1 m/s 751 mmHg 91%
    06:00 +23°C° 0.4 mm 1 m/s 751 mmHg 89%
    07:00 +24°C° 0.4 mm 1 m/s 751 mmHg 87%
    08:00 +24°C° 0.4 mm 2 m/s 751 mmHg 85%
    09:00 +25°C° 0.4 mm 3 m/s 751 mmHg 84%
    10:00 +26°C° 0.4 mm 3 m/s 751 mmHg 82%
    11:00 +26°C° 0.8 mm 4 m/s 751 mmHg 82%
    12:00 +26°C° 0.8 mm 4 m/s 751 mmHg 82%
    13:00 +26°C° 0.8 mm 4 m/s 751 mmHg 82%
    14:00 +26°C° 2.4 mm 4 m/s 751 mmHg 83%
    15:00 +26°C° 2.4 mm 3 m/s 751 mmHg 84%
    16:00 +25°C° 2.4 mm 3 m/s 751 mmHg 85%
    17:00 +24°C° 1.5 mm 3 m/s 751 mmHg 87%
    18:00 +23°C° 1.5 mm 2 m/s 752 mmHg 89%
    19:00 +21°C° 1.5 mm 2 m/s 752 mmHg 92%
    20:00 +21°C° 1 mm 2 m/s 752 mmHg 93%
    21:00 +20°C° 1 mm 2 m/s 753 mmHg 94%
    22:00 +21°C° 1 mm 1 m/s 753 mmHg 95%
    23:00 +20°C° 0.8 mm 2 m/s 754 mmHg 96%

    24 Iunie, Luni

    Timp Temperatura Precipitaţii Vânt Presiune Umiditate
    00:00 +20°C° 0.8 mm 2 m/s 754 mmHg 96%
    01:00 +20°C° 0.8 mm 3 m/s 754 mmHg 97%
    02:00 +20°C° 1.4 mm 3 m/s 754 mmHg 97%
    03:00 +20°C° 1.4 mm 4 m/s 754 mmHg 97%
    04:00 +20°C° 1.4 mm 4 m/s 754 mmHg 97%
    05:00 +20°C° 0.1 mm 4 m/s 754 mmHg 96%
    06:00 +20°C° 0.1 mm 4 m/s 755 mmHg 96%
    07:00 +20°C° 0.1 mm 4 m/s 755 mmHg 95%
    08:00 +21°C° 0 mm 4 m/s 755 mmHg 94%
    09:00 +21°C° 0 mm 4 m/s 756 mmHg 92%
    10:00 +22°C° 0 mm 4 m/s 756 mmHg 91%
    11:00 +22°C° 0.1 mm 4 m/s 756 mmHg 89%
    12:00 +24°C° 0.1 mm 3 m/s 756 mmHg 87%
    13:00 +25°C° 0.1 mm 3 m/s 756 mmHg 85%
    14:00 +25°C° 0.2 mm 3 m/s 756 mmHg 84%
    15:00 +26°C° 0.2 mm 3 m/s 756 mmHg 84%
    16:00 +26°C° 0.2 mm 3 m/s 756 mmHg 83%
    17:00 +25°C° 0.8 mm 2 m/s 756 mmHg 85%
    18:00 +25°C° 0.8 mm 2 m/s 756 mmHg 87%
    19:00 +24°C° 0.8 mm 2 m/s 756 mmHg 90%
    20:00 +23°C° 1.1 mm 2 m/s 756 mmHg 91%
    21:00 +23°C° 1.1 mm 2 m/s 757 mmHg 93%
    22:00 +21°C° 1.1 mm 2 m/s 757 mmHg 94%
    23:00 +21°C° 0.5 mm 2 m/s 757 mmHg 95%

    25 Iunie, Marţi

    Timp Temperatura Precipitaţii Vânt Presiune Umiditate
    00:00 +21°C° 0.5 mm 2 m/s 757 mmHg 96%
    01:00 +20°C° 0.5 mm 2 m/s 757 mmHg 96%
    02:00 +20°C° 0.3 mm 2 m/s 757 mmHg 96%
    03:00 +20°C° 0.3 mm 2 m/s 757 mmHg 97%
    04:00 +20°C° 0.3 mm 2 m/s 757 mmHg 97%
    05:00 +21°C° 0 mm 2 m/s 757 mmHg 96%
    06:00 +21°C° 0 mm 3 m/s 757 mmHg 94%
    07:00 +22°C° 0 mm 3 m/s 758 mmHg 93%
    08:00 +24°C° 0 mm 3 m/s 758 mmHg 90%
    09:00 +24°C° 0 mm 3 m/s 758 mmHg 87%
    10:00 +25°C° 0 mm 3 m/s 758 mmHg 84%
    11:00 +26°C° 0 mm 3 m/s 758 mmHg 83%
    12:00 +26°C° 0 mm 3 m/s 758 mmHg 81%
    13:00 +27°C° 0 mm 3 m/s 758 mmHg 79%
    14:00 +28°C° 0.2 mm 3 m/s 757 mmHg 79%
    15:00 +28°C° 0.2 mm 3 m/s 757 mmHg 78%
    16:00 +28°C° 0.2 mm 3 m/s 757 mmHg 78%
    17:00 +27°C° 1.2 mm 2 m/s 757 mmHg 82%
    18:00 +26°C° 1.2 mm 2 m/s 758 mmHg 85%
    19:00 +25°C° 1.2 mm 2 m/s 758 mmHg 89%
    20:00 +25°C° 2.1 mm 2 m/s 758 mmHg 91%
    21:00 +24°C° 2.1 mm 1 m/s 758 mmHg 93%
    22:00 +23°C° 2.1 mm 1 m/s 758 mmHg 95%
    23:00 +23°C° 0.5 mm 2 m/s 758 mmHg 95%
    Arată mai mult